Location: Sungai Laei
(2.6000°N, 113.7167°E)
Time: 10:09:22
(UTC+00:00)

Nadezhda 3 Rocket - Pass Details

Date: 22 May 2022
Orbit: 956 x 1000 km, 82.9° (Epoch: 06 July)

Event Time Altitude Azimuth Distance (km) Brightness Sun altitude
Exits shadow 20:49:37 21° 199° (SSW) 2,067 5.3 -20.5°
Maximum altitude 20:53:54 60° 273° (W) 1,127 4.0 -19.5°
Drops below altitude 10° 21:00:07 10° 352° (N) 2,749 6.5 -18.1°
Sets 21:02:40 0° 356° (N) 3,691 7.3 -17.5°
